This demonstration page uses our WeatherBlox Daily Observations layout. Learn more.

Left ArrowRight Arrow

44.8408, -93.29828

Hourly Observations for July 14, 2021

Temp ( °F °C ) Dew Point ( °F °C ) Humidity (%) Winds ( mph kmh ) Pressure ( in mb ) Visibility ( mi km ) Precip ( " mm )
12:53 am 00:53 Clear 76 24.4 67 19.4 74 74 SW 5 7 29.98 1015 10 16 0.00 0.00
1:53 am 01:53 Clear 74 23.3 67 19.4 79 79 SW 5 7 29.98 1015 10 16 0.00 0.00
2:53 am 02:53 Clear 72 22.2 67 19.4 84 84 S 5 7 29.97 1015 10 16 0.00 0.00
3:53 am 03:53 Clear 71 21.7 67 19.4 87 87 Calm 29.97 1015 10 16 0.00 0.00
4:53 am 04:53 Clear 69 20.6 67 19.4 93 93 SE 5 7 29.95 1014 10 16 0.00 0.00
5:53 am 05:53 Partly Cloudy 70 21.1 66 18.9 87 87 SSE 3 6 29.98 1015 8 13 0.00 0.00
6:53 am 06:53 Cloudy 70 21.1 67 19.4 90 90 Calm 29.99 1016 8 13 0.00 0.00
7:53 am 07:53 Cloudy 72 22.2 66 18.9 82 82 Calm 29.98 1015 9 14 0.00 0.00
8:53 am 08:53 Cloudy 73 22.8 67 19.4 81 81 NE 3 6 29.96 1015 9 14 0.00 0.00
9:53 am 09:53 Cloudy 73 22.8 67 19.4 81 81 SE 3 6 29.97 1015 9 14 0.00 0.00
10:53 am 10:53 Cloudy 73 22.8 67 19.4 81 81 SE 6 9 29.96 1014 8 13 0.00 0.00
11:53 am 11:53 Cloudy 72 22.2 66 18.9 82 82 SSE 10 17 29.95 1014 7 11 0.00 0.00
12:32 pm 12:32 Cloudy with Light Rain 71 21.7 68 20 90 90 SSE 7 11 29.93 1014 7 11 0.02 0.51
12:53 pm 12:53 Cloudy with Light Rain 70 21.1 68 20 93 93 SE 8 13 29.93 1013 6 10 0.05 1.27
1:04 pm 13:04 Cloudy with Light Rain 70 21.1 68 20 93 93 ESE 10 17 29.90 1013 6 10 0.01 0.25
1:53 pm 13:53 Cloudy with Light Rain 70 21.1 69 20.6 97 97 SE 10 17 29.89 1012 6 10 0.04 1.02
2:32 pm 14:32 Cloudy with Light Rain 70 21.1 69 20.6 97 97 SE 13 20 29.87 1012 6 10 0.03 0.76
2:53 pm 14:53 Cloudy with Light Rain 70 21.1 65 18.3 84 84 SSE 6 9 29.92 1013 6 10 0.04 1.02
3:53 pm 15:53 Cloudy with Light Rain 68 20 64 17.8 87 87 NNE 15 24 29.96 1015 9 14 0.07 1.78
4:38 pm 16:38 Cloudy with Light Rain 66 18.9 64 17.8 93 93 NNE 9 15 29.95 1014 9 14 0.02 0.51
4:53 pm 16:53 Cloudy 68 20 65 18.3 90 90 E 9 15 29.95 1014 10 16 0.02 0.51
5:01 pm 17:01 Cloudy 68 20 65 18.3 90 90 ESE 8 13 29.93 1013 10 16 0.00 0.00
5:53 pm 17:53 Cloudy 71 21.7 65 18.3 81 81 NNE 7 11 29.93 1014 10 16 0.00 0.00
6:53 pm 18:53 Cloudy 70 21.1 63 17.2 79 79 NNE 10 17 29.92 1013 10 16 0.00 0.00
7:46 pm 19:46 Mostly Cloudy 69 20.6 64 17.8 84 84 N 10 17 29.92 1013 10 16 0.00 0.00
7:53 pm 19:53 Mostly Cloudy 68 20 63 17.2 84 84 N 10 17 29.93 1014 10 16 0.00 0.00
8:42 pm 20:42 Cloudy 67 19.4 63 17.2 87 87 N 8 13 29.94 1014 10 16 0.00 0.00
8:53 pm 20:53 Cloudy 67 19.4 63 17.2 87 87 N 12 19 29.95 1014 10 16 0.00 0.00
9:07 pm 21:07 Cloudy 67 19.4 63 17.2 87 87 N 8 13 29.94 1014 10 16 0.00 0.00
9:24 pm 21:24 Mostly Cloudy 67 19.4 63 17.2 87 87 N 8 13 29.93 1014 10 16 0.00 0.00
9:31 pm 21:31 Mostly Cloudy 67 19.4 63 17.2 87 87 N 9 15 29.93 1014 10 16 0.00 0.00
9:53 pm 21:53 Mostly Cloudy 66 18.9 62 16.7 87 87 N 10 17 29.95 1014 10 16 0.00 0.00
10:53 pm 22:53 Partly Cloudy 65 18.3 62 16.7 90 90 N 7 11 29.96 1015 10 16 0.00 0.00
11:53 pm 23:53 Mostly Clear 65 18.3 61 16.1 87 87 N 9 15 29.97 1015 10 16 0.00 0.00

Powered by AerisWeather